Home   Weather   Saint Helier   Past weeks

Flag for Jersey Past Weather in Saint Helier, Jersey — Yesterday and Last 2 Weeks

Now
46 °F

Passing clouds.


Feels Like: 45 °F
Forecast: 47 / 50 °F
Wind: 3 mph from Southwest

Location: Jersey Airport

Current Time: May 1, 2017 at 12:10:03 am

Latest Report: Apr 30, 2017 at 9:50 pm


Visibility: N/A

Pressure: 29.42 "Hg

Humidity: 93%

Dew Point: 45 °F

Location of Saint HelierLocation

Past Weather in Saint Helier — Graph

°F

Saint Helier Temperature Yesterday

Maximum temperature yesterday: 54 °F (at 3:50 am)
Minimum temperature yesterday: 46 °F (at 9:20 am)
Average temperature yesterday: 50 °F

High & Low Weather Summary for the Past Weeks

 TemperatureHumidityPressure
High59 °F (Apr 21, 2:50 pm)100% (Apr 17, 6:20 am)30.63 "Hg (Apr 17, 6:20 am)
Low37 °F (Apr 20, 5:50 am)36% (Apr 23, 1:20 pm)29.39 "Hg (Apr 30, 1:20 pm)
Average50 °F72%30.18 "Hg
* Reported Apr 16 3:50 am — Apr 30 9:50 pm, Saint Helier, Weather by CustomWeather, © 2017

Note: Actual official high and low records may vary slightly from our data, if they occured in-between our weather recording intervals... More about our weather records

Advertising

Saint Helier Weather History for the Previous 24 Hours

Scroll right to see more
 ConditionsComfort  
Time TempWeatherWind HumidityBarometerVisibility
9:50 pm
Sun, Apr 30
46 °FPassing clouds.3 mph93%29.42 "HgN/A
9:20 pm46 °FPassing clouds.10 mph93%29.42 "HgN/A
8:50 pm46 °FPassing clouds.10 mph93%29.42 "Hg5 mi
8:20 pm46 °FSprinkles. Partly sunny.15 mph93%29.42 "Hg4 mi
7:50 pm48 °FPartly sunny.13 mph94%29.42 "HgN/A
7:20 pm48 °FPartly sunny.13 mph94%29.39 "HgN/A
6:50 pm48 °FPartly sunny.13 mph94%29.39 "HgN/A
6:20 pm48 °FPartly sunny.10 mph100%29.39 "HgN/A
5:50 pm48 °FLight rain. Scattered clouds.12 mph94%29.39 "HgN/A
5:20 pm48 °FRain. Partly sunny.10 mph94%29.39 "Hg6 mi
4:50 pm48 °FRain. Partly sunny.15 mph100%29.42 "Hg4 mi
4:20 pm48 °FRain. Scattered clouds.10 mph94%29.42 "Hg4 mi
3:50 pm50 °FRain. Broken clouds.16 mph94%29.42 "Hg4 mi
3:20 pm52 °FRain. Scattered clouds.17 mph94%29.39 "Hg4 mi
2:50 pm52 °FPassing clouds.14 mph88%29.39 "HgN/A
2:20 pm52 °FPassing clouds.14 mph88%29.39 "HgN/A
1:50 pm54 °FPassing clouds.16 mph88%29.39 "HgN/A
1:20 pm52 °FPartly sunny.21 mph94%29.39 "HgN/A
12:50 pm50 °FPartly sunny.16 mph94%29.42 "HgN/A
12:20 pm48 °FPartly sunny.20 mph94%29.42 "HgN/A
11:50 am48 °FLight rain. Partly sunny.15 mph94%29.42 "HgN/A
11:20 am48 °FPartly sunny.20 mph94%29.45 "HgN/A
10:50 am46 °FLight rain. Partly sunny.15 mph100%29.45 "HgN/A
10:20 am48 °FRain. Scattered clouds.14 mph94%29.45 "HgN/A
9:50 am48 °FRain. Scattered clouds.13 mph94%29.47 "HgN/A
9:20 am46 °FRain. Scattered clouds.14 mph93%29.47 "Hg4 mi
8:50 am48 °FRain. Partly sunny.14 mph87%29.47 "Hg6 mi
8:20 am52 °FLight rain. Passing clouds.14 mph67%29.47 "HgN/A
7:50 am52 °FLight rain. Passing clouds.18 mph72%29.50 "HgN/A
7:20 am54 °FSunny.16 mph63%29.50 "Hg10 mi
6:50 am54 °FSunny.16 mph63%29.50 "Hg10 mi
6:20 am54 °FSunny.16 mph63%29.50 "Hg10 mi
5:50 am54 °FSunny.17 mph63%29.50 "Hg10 mi
5:20 am54 °FClear.14 mph63%29.53 "Hg10 mi
4:50 am54 °FClear.18 mph63%29.53 "Hg10 mi
4:20 am54 °FClear.18 mph67%29.56 "Hg10 mi
3:50 am54 °FClear.18 mph67%29.56 "Hg10 mi
Weather by CustomWeather, © 2017

See weather overviewHow to use our weather pages